Weather History for Wahoo, NE

Change the Weather History Date:

Thursday, June 12, 2014

  Actual Average Record
Temperature  
Mean Temperature 66 °F -  
Max Temperature 75 °F 83 °F 96 °F (1981)
Min Temperature 56 °F 58 °F 43 °F (1974)
Cooling Degree Days 1    
Growing Degree Days 16 (Base 50)    
Moisture  
Dew Point 43 °F    
Average Humidity 44    
Maximum Humidity 69    
Minimum Humidity 24    
Precipitation  
Precipitation 0.00 in - - ()
Sea Level Pressure  
Sea Level Pressure 30.00 in    
Wind  
Wind Speed 16 mph (NNW)    
Max Wind Speed 23 mph    
Max Gust Speed 29 mph    
Visibility 10 miles    
Events      
Averages and records for this station are not official NWS values.
T = Trace of Precipitation, MM = Missing Value Source: NWS Daily Summary

Daily Weather History Graph

Daily Weather History Graph

Search for Another Location

Airport:

Trip Planner

Search our weather history database for the weather conditions in past years. The results will help you decide how hot, cold, wet, or windy it might be!

Date:

Astronomy

Jun. 12, 2014 Rise Set
Actual Time 5:52 AM CDT 8:59 PM CDT
Civil Twilight 5:19 AM CDT 9:33 PM CDT
Nautical Twilight 4:36 AM CDT 10:16 PM CDT
Astronomical Twilight 3:45 AM CDT 11:07 PM CDT
Moon 8:32 PM CDT (6/12) 5:35 AM CDT (6/12)
Length of Visible Light 16h 14m
Length of Day
15h 06m
Full, 100% of the Moon is Illuminated
Jun 12
Full
Jun 12
Full
Jun 19
Last Quarter
Jun 27
New
Jul 5
First Quarter

Hourly Weather History & Observations

Time (CDT) Temp. Dew Point Humidity Pressure Visibility Wind Dir Wind Speed Gust Speed Precip Events Conditions
12:15 AM 73.8 °F 57.2 °F 56% 29.86 in 10.0 mi NNW 23.0 mph 28.8 mph N/A   Overcast
12:35 AM 72.5 °F 54.9 °F 54% 29.88 in 10.0 mi NNW 19.6 mph 27.6 mph N/A   Overcast
12:55 AM 71.6 °F 51.8 °F 50% 29.88 in 10.0 mi NNW 17.3 mph 24.2 mph N/A   Overcast
1:15 AM 70.7 °F 51.8 °F 51% 29.88 in 10.0 mi North 11.5 mph 23.0 mph N/A   Overcast
1:35 AM 70.0 °F 50.2 °F 49% 29.88 in 10.0 mi North 16.1 mph 21.9 mph N/A   Overcast
1:55 AM 68.9 °F 49.1 °F 49% 29.87 in 10.0 mi North 16.1 mph 26.5 mph N/A   Mostly Cloudy
2:15 AM 68.7 °F 49.5 °F 50% 29.88 in 10.0 mi NNW 18.4 mph 26.5 mph N/A   Overcast
2:35 AM 68.0 °F 49.3 °F 51% 29.89 in 10.0 mi NNW 21.9 mph 28.8 mph N/A   Overcast
2:55 AM 67.1 °F 48.7 °F 52% 29.89 in 10.0 mi NNW 18.4 mph 27.6 mph N/A   Overcast
3:15 AM 66.2 °F 49.5 °F 55% 29.90 in 10.0 mi NNW 15.0 mph - N/A   Overcast
3:35 AM 65.5 °F 49.5 °F 56% 29.89 in 10.0 mi North 19.6 mph 25.3 mph N/A   Overcast
3:55 AM 64.8 °F 50.4 °F 60% 29.91 in 10.0 mi North 16.1 mph 21.9 mph N/A   Overcast
4:15 AM 64.0 °F 50.9 °F 62% 29.91 in 10.0 mi NNW 9.2 mph 17.3 mph N/A   Overcast
4:35 AM 63.5 °F 50.5 °F 63% 29.92 in 10.0 mi NNW 17.3 mph 20.7 mph N/A   Overcast
5:15 AM 63.0 °F 50.9 °F 65% 29.95 in 10.0 mi NNW 16.1 mph 19.6 mph N/A   Overcast
5:35 AM 62.6 °F 50.5 °F 65% 29.97 in 10.0 mi NNW 12.7 mph 21.9 mph N/A   Mostly Cloudy
5:55 AM 62.2 °F 50.9 °F 66% 29.96 in 10.0 mi NNW 15.0 mph 19.6 mph N/A   Overcast
6:35 AM 61.2 °F 50.9 °F 69% 29.98 in 10.0 mi NNW 16.1 mph 21.9 mph N/A   Mostly Cloudy
6:55 AM 60.8 °F 50.0 °F 68% 29.99 in 10.0 mi NNW 18.4 mph 26.5 mph N/A   Scattered Clouds
7:15 AM 59.7 °F 48.9 °F 67% 30.00 in 10.0 mi NNW 18.4 mph 28.8 mph N/A   Scattered Clouds
7:35 AM 59.2 °F 48.0 °F 66% 30.01 in 10.0 mi NNW 17.3 mph 28.8 mph N/A   Clear
7:55 AM 60.1 °F 48.0 °F 64% 30.02 in 10.0 mi NNW 20.7 mph 25.3 mph N/A   Clear
8:35 AM 61.0 °F 47.5 °F 61% 30.03 in 10.0 mi North 19.6 mph 26.5 mph N/A   Clear
8:55 AM 62.4 °F 47.5 °F 58% 30.04 in 10.0 mi North 15.0 mph 23.0 mph N/A   Clear
9:35 AM 64.9 °F 46.9 °F 52% 30.04 in 10.0 mi North 15.0 mph 20.7 mph N/A   Mostly Cloudy
9:55 AM 66.2 °F 46.2 °F 49% 30.04 in 10.0 mi North 18.4 mph 23.0 mph N/A   Overcast
10:15 AM 65.1 °F 46.0 °F 50% 30.05 in 10.0 mi North 11.5 mph 25.3 mph N/A   Mostly Cloudy
10:35 AM 66.7 °F 47.7 °F 50% 30.04 in 10.0 mi NNW 13.8 mph 18.4 mph N/A   Mostly Cloudy
10:55 AM 67.5 °F 47.1 °F 48% 30.04 in 10.0 mi North 11.5 mph 20.7 mph N/A   Mostly Cloudy
11:15 AM 65.8 °F 46.4 °F 49% 30.04 in 10.0 mi North 13.8 mph 21.9 mph N/A   Mostly Cloudy
11:35 AM 68.0 °F 45.0 °F 43% 30.04 in 10.0 mi North 16.1 mph 23.0 mph N/A   Scattered Clouds
11:55 AM 68.7 °F 44.2 °F 41% 30.05 in 10.0 mi NNW 15.0 mph 24.2 mph N/A   Scattered Clouds
12:15 PM 69.1 °F 43.5 °F 40% 30.05 in 10.0 mi NNW 13.8 mph 21.9 mph N/A   Scattered Clouds
12:35 PM 70.3 °F 43.2 °F 37% 30.04 in 10.0 mi North 15.0 mph 24.2 mph N/A   Scattered Clouds
1:15 PM 71.4 °F 41.4 °F 34% 30.04 in 10.0 mi NW 15.0 mph 21.9 mph N/A   Mostly Cloudy
1:35 PM 72.0 °F 40.1 °F 32% 30.04 in 10.0 mi North 12.7 mph 24.2 mph N/A   Scattered Clouds
1:55 PM 72.7 °F 39.2 °F 30% 30.04 in 10.0 mi WNW 17.3 mph 23.0 mph N/A   Clear
2:15 PM 72.7 °F 39.6 °F 30% 30.04 in 10.0 mi NW 11.5 mph 23.0 mph N/A   Clear
2:35 PM 72.9 °F 39.0 °F 29% 30.04 in 10.0 mi NNW 15.0 mph 23.0 mph N/A   Clear
2:55 PM 73.8 °F 40.3 °F 30% 30.02 in 10.0 mi NW 19.6 mph 23.0 mph N/A   Clear
3:15 PM 74.1 °F 39.6 °F 29% 30.02 in 10.0 mi NW 18.4 mph 24.2 mph N/A   Clear
3:35 PM 74.7 °F 38.5 °F 27% 30.02 in 10.0 mi NW 15.0 mph 24.2 mph N/A   Clear
3:55 PM 74.5 °F 37.4 °F 26% 30.02 in 10.0 mi NW 18.4 mph 23.0 mph N/A   Clear
4:15 PM 75.0 °F 37.6 °F 26% 30.02 in 10.0 mi NW 16.1 mph 24.2 mph N/A   Clear
4:35 PM 75.0 °F 36.9 °F 25% 30.01 in 10.0 mi NNW 11.5 mph 21.9 mph N/A   Clear
4:55 PM 75.0 °F 37.2 °F 25% 30.01 in 10.0 mi NNW 12.7 mph 28.8 mph N/A   Clear
5:15 PM 75.0 °F 35.2 °F 24% 30.01 in 10.0 mi North 18.4 mph 24.2 mph N/A   Clear
5:35 PM 75.2 °F 35.6 °F 24% 30.01 in 10.0 mi NNW 17.3 mph 24.2 mph N/A   Clear
5:55 PM 74.7 °F 35.4 °F 24% 30.02 in 10.0 mi North 13.8 mph 25.3 mph N/A   Clear
6:15 PM 74.3 °F 35.8 °F 25% 30.02 in 10.0 mi North 15.0 mph 25.3 mph N/A   Clear
6:35 PM 73.9 °F 35.4 °F 25% 30.02 in 10.0 mi North 15.0 mph 24.2 mph N/A   Clear
6:55 PM 73.4 °F 34.7 °F 24% 30.02 in 10.0 mi North 13.8 mph 21.9 mph N/A   Clear
7:15 PM 72.9 °F 35.6 °F 26% 30.03 in 10.0 mi North 10.4 mph - N/A   Clear
7:35 PM 72.3 °F 34.2 °F 25% 30.03 in 10.0 mi NNW 15.0 mph 20.7 mph N/A   Clear
7:55 PM 71.6 °F 35.1 °F 26% 30.04 in 10.0 mi North 10.4 mph 18.4 mph N/A   Clear
8:15 PM 70.3 °F 35.2 °F 28% 30.04 in 10.0 mi North - - N/A   Clear
8:35 PM 68.9 °F 36.0 °F 30% 30.05 in 10.0 mi North 6.9 mph - N/A   Clear
8:55 PM 66.9 °F 36.0 °F 32% 30.04 in 10.0 mi North 6.9 mph - N/A   Clear
9:15 PM 64.4 °F 37.4 °F 37% 30.05 in 10.0 mi North 6.9 mph - N/A   Clear
9:35 PM 62.6 °F 37.8 °F 40% 30.06 in 10.0 mi NNW 5.8 mph - N/A   Clear
9:55 PM 61.2 °F 38.5 °F 43% 30.07 in 10.0 mi NNW 5.8 mph - N/A   Clear
10:15 PM 59.9 °F 39.9 °F 48% 30.07 in 10.0 mi NW 5.8 mph - N/A   Clear
10:35 PM 59.0 °F 41.0 °F 51% 30.08 in 10.0 mi NW 6.9 mph - N/A   Clear
10:55 PM 58.5 °F 40.5 °F 51% 30.08 in 10.0 mi NW 5.8 mph - N/A   Clear
11:15 PM 57.6 °F 40.3 °F 53% 30.08 in 10.0 mi NW 5.8 mph - N/A   Clear
11:35 PM 57.2 °F 40.8 °F 54% 30.09 in 10.0 mi NW 5.8 mph - N/A   Clear
11:55 PM 56.7 °F 39.7 °F 53% 30.09 in 10.0 mi NW 5.8 mph - N/A   Clear